1506632400.06,1196,17.56,74694.8,-3.93,-37.63,-37.93,0,*69
1506632401.29,1197,17.56,74688.8,-3.91,-37.75,-37.93,0,*6D
1506632402.57,1198,17.56,74688.3,-3.93,-37.99,-38.29,0,*6C
1506632403.79,1199,17.56,74688.3,-3.91,-37.69,-38.05,0,*6E
1506632405.05,1200,17.56,74694.8,-3.93,-37.75,-37.99,0,*68
1506632406.3,1201,17.56,74688.3,-3.93,-37.75,-38.11,0,*66
1506632407.55,1202,17.56,74694.3,-3.93,-37.99,-38.17,0,*61
1506632408.84,1203,17.56,74692.3,-3.93,-37.99,-38.29,0,*6D
1506632410.09,1204,17.56,74692.5,-3.93,-37.99,-38.17,0,*67
1506632411.35,1205,17.56,74692.5,-3.93,-37.93,-38.17,0,*6C
1506632412.6,1206,17.56,74692.8,-3.93,-37.51,-37.75,0,*6A
1506632413.86,1207,17.56,74692.0,-3.93,-37.51,-37.75,0,*6B
1506632415.08,1208,17.56,74694.0,-3.93,-37.57,-37.75,0,*62
1506632416.34,1209,17.56,74690.8,-3.95,-37.63,-37.81,0,*69
1506632417.57,1210,17.56,74690.8,-3.95,-37.75,-37.99,0,*6F
1506632418.82,1211,17.56,74688.8,-3.93,-37.75,-38.11,0,*67
1506632420.08,1212,17.56,74690.0,-3.93,-37.75,-37.99,0,*6B
1506632421.36,1213,17.56,74690.5,-3.93,-37.63,-37.93,0,*67
1506632422.61,1214,17.56,74688.0,-3.93,-37.39,-37.75,0,*67
1506632423.87,1215,17.56,74694.0,-3.95,-37.51,-37.81,0,*65
1506632425.12,1216,17.56,74690.8,-3.93,-37.57,-37.81,0,*66
1506632426.38,1217,17.56,74690.5,-3.93,-37.57,-37.93,0,*64
1506632427.66,1218,17.56,74688.8,-3.93,-37.63,-37.81,0,*6F
1506632428.91,1219,17.56,74690.0,-3.97,-37.69,-38.05,0,*63
1506632430.2,1220,17.56,74688.5,-3.93,-37.81,-38.11,0,*6E
1506632431.46,1221,17.56,74692.0,-3.95,-37.99,-38.29,0,*6B
1506632432.71,1222,17.56,74694.5,-3.93,-37.99,-38.17,0,*63
1506632433.97,1223,17.5,74690.3,-3.93,-37.75,-37.99,0,*69
1506632435.22,1224,17.56,74694.5,-3.93,-37.63,-37.75,0,*6B
1506632436.48,1225,17.56,74690.8,-3.95,-37.63,-37.81,0,*67
1506632437.74,1226,17.56,74688.5,-3.93,-37.75,-37.99,0,*6C
1506632439.0,1227,17.5,74686.8,-3.95,-37.81,-38.11,0,*6F
1506632440.27,1228,17.56,74688.8,-3.97,-37.87,-37.99,0,*6B
1506632441.55,1229,17.56,74694.5,-3.97,-37.63,-37.81,0,*69
1506632442.84,1230,17.56,74692.8,-3.97,-37.63,-37.81,0,*61
1506632444.07,1231,17.56,74690.3,-3.95,-37.51,-37.75,0,*68
1506632445.34,1232,17.56,74688.0,-3.97,-37.45,-37.81,0,*67
1506632446.6,1233,17.56,74690.0,-3.97,-37.63,-37.87,0,*64
1506632447.87,1234,17.56,74694.3,-3.95,-37.81,-37.99,0,*62
1506632449.14,1235,17.56,74688.8,-3.97,-37.87,-38.23,0,*69
1506632450.42,1236,17.56,74688.5,-3.97,-37.99,-38.11,0,*64
1506632451.71,1237,17.56,74690.8,-3.97,-37.99,-38.23,0,*64
1506632452.97,1238,17.56,74690.0,-3.97,-37.99,-38.17,0,*6C
1506632454.24,1239,17.56,74688.0,-3.97,-37.81,-38.17,0,*64
1506632455.48,1240,17.56,74690.3,-3.97,-37.87,-38.17,0,*6C
1506632456.71,1241,17.56,74690.8,-3.95,-37.75,-37.99,0,*6B
1506632458.0,1242,17.56,74690.8,-3.97,-37.63,-37.99,0,*6D
1506632459.29,1243,17.56,74688.0,-3.97,-37.81,-38.23,0,*6E
1506632460.55,1244,17.56,74688.8,-3.95,-37.63,-37.93,0,*63
1506632461.81,1245,17.56,74692.0,-4.01,-37.99,-38.17,0,*6E
1506632463.04,1246,17.56,74690.0,-4.01,-37.87,-38.05,0,*61
1506632464.27,1247,17.56,74690.8,-3.99,-37.57,-37.81,0,*68
1506632465.52,1248,17.56,74690.3,-3.99,-37.87,-38.23,0,*6D
1506632466.77,1249,17.56,74688.5,-4.01,-38.05,-38.11,0,*6E
1506632468.01,1250,17.56,74690.0,-3.99,-37.81,-38.05,0,*66
1506632469.25,1251,17.56,74688.3,-3.99,-37.81,-38.17,0,*64
1506632470.51,1252,17.56,74690.3,-3.99,-37.51,-37.81,0,*6A
1506632471.74,1253,17.56,74690.8,-4.01,-37.75,-38.05,0,*68
1506632472.97,1254,17.56,74688.5,-3.99,-37.81,-38.05,0,*62
1506632474.23,1255,17.56,74694.0,-3.99,-37.63,-37.99,0,*65
1506632475.5,1256,17.5,74688.0,-4.01,-37.69,-37.87,0,*65
1506632476.73,1257,17.56,74688.8,-4.01,-37.45,-37.87,0,*6A
1506632477.97,1258,17.5,74688.5,-3.99,-37.45,-37.81,0,*65
1506632479.22,1259,17.5,74690.8,-4.01,-37.33,-37.69,0,*65
1506632480.45,1260,17.56,74688.5,-3.99,-37.09,-37.57,0,*6D
1506632481.72,1261,17.56,74690.8,-3.99,-37.09,-37.39,0,*64
1506632482.95,1262,17.56,74690.0,-3.99,-37.21,-37.45,0,*66
1506632484.24,1263,17.56,74688.5,-4.01,-37.21,-37.63,0,*65
1506632485.5,1264,17.56,74690.3,-3.99,-37.39,-37.69,0,*67
1506632486.73,1265,17.56,74690.8,-3.99,-37.27,-37.69,0,*69
1506632487.97,1266,17.56,74688.0,-3.99,-37.81,-38.05,0,*63
1506632489.2,1267,17.5,74684.3,-3.99,-37.81,-38.05,0,*62
1506632490.46,1268,17.56,74690.5,-3.97,-37.69,-38.05,0,*65
1506632491.69,1269,17.56,74688.0,-3.99,-37.57,-37.81,0,*64
1506632492.91,1270,17.56,74690.3,-3.99,-37.57,-37.87,0,*6A
1506632494.15,1271,17.56,74690.8,-3.99,-37.69,-37.87,0,*66
1506632495.4,1272,17.56,74690.0,-4.01,-37.75,-37.93,0,*6B
1506632496.63,1273,17.56,74688.5,-3.99,-37.45,-37.81,0,*6C
1506632497.86,1274,17.56,74688.5,-3.99,-37.27,-37.69,0,*69
1506632499.1,1275,17.56,74688.5,-3.99,-37.27,-37.63,0,*62
1506632500.31,1276,17.56,74688.0,-3.99,-37.27,-37.57,0,*66
1506632501.58,1277,17.5,74690.3,-3.99,-37.39,-37.63,0,*6F
1506632502.84,1278,17.56,74690.0,-3.99,-37.09,-37.39,0,*6C
1506632504.1,1279,17.56,74688.3,-3.97,-37.09,-37.45,0,*68
1506632505.36,1280,17.56,74688.8,-3.97,-37.09,-37.45,0,*6E
1506632506.62,1281,17.56,74690.8,-3.97,-37.21,-37.57,0,*66
1506632507.88,1282,17.5,74688.5,-3.97,-37.09,-37.45,0,*6C
1506632509.15,1283,17.5,74688.5,-3.97,-37.21,-37.57,0,*64
1506632510.43,1284,17.56,74690.0,-3.97,-37.39,-37.69,0,*67
1506632511.69,1285,17.5,74688.8,-3.95,-37.51,-37.63,0,*60
1506632512.95,1286,17.56,74690.3,-3.97,-37.57,-37.81,0,*6B
1506632514.21,1287,17.5,74684.8,-3.97,-37.57,-37.81,0,*6A
1506632515.48,1288,17.5,74686.0,-3.97,-37.63,-37.87,0,*64
1506632516.74,1289,17.56,74690.8,-3.97,-37.63,-37.87,0,*65
1506632517.98,1290,17.5,74688.0,-3.97,-37.87,-38.05,0,*62
1506632519.24,1291,17.56,74686.8,-3.97,-37.99,-38.17,0,*6F
1506632520.45,1292,17.56,74690.0,-3.99,-37.87,-38.17,0,*6D
1506632521.67,1293,17.56,74690.5,-3.99,-37.87,-38.17,0,*6C
1506632522.93,1294,17.56,74690.3,-3.97,-37.81,-38.05,0,*60
1506632524.19,1295,17.56,74686.8,-3.97,-37.69,-37.87,0,*62
1506632525.48,1296,17.56,74690.8,-3.97,-37.63,-37.81,0,*6D
1506632526.7,1297,17.5,74686.0,-3.99,-37.87,-38.17,0,*68
1506632527.92,1298,17.56,74690.3,-3.99,-37.69,-38.05,0,*64
1506632529.16,1299,17.5,74686.5,-3.99,-37.99,-38.17,0,*69
1506632530.41,1300,17.56,74690.8,-4.01,-37.75,-37.93,0,*6F
1506632531.68,1301,17.5,74690.0,-3.99,-37.63,-37.81,0,*6C
1506632532.91,1302,17.5,74686.0,-3.99,-37.69,-38.05,0,*66
1506632534.14,1303,17.5,74690.3,-3.99,-37.81,-38.05,0,*61
1506632535.4,1304,17.5,74688.8,-4.01,-37.75,-38.11,0,*6E
1506632536.66,1305,17.5,74684.3,-4.01,-37.63,-37.87,0,*68
1506632537.86,1306,17.5,74690.8,-4.03,-37.45,-37.75,0,*60
1506632539.11,1307,17.56,74692.0,-3.99,-37.39,-37.69,0,*63
1506632540.34,1308,17.5,74690.3,-3.99,-37.45,-37.69,0,*67
1506632541.57,1309,17.5,74688.5,-4.01,-37.15,-37.45,0,*6B
1506632542.81,1310,17.5,74690.3,-3.99,-37.03,-37.21,0,*60
1506632544.04,1311,17.5,74688.0,-4.01,-37.03,-37.27,0,*61
1506632545.3,1312,17.5,74688.0,-4.01,-37.27,-37.51,0,*65
1506632546.55,1313,17.5,74686.5,-4.01,-37.63,-37.75,0,*62
1506632547.82,1314,17.5,74684.0,-3.99,-37.63,-37.81,0,*68
1506632549.05,1315,17.56,74690.3,-3.99,-37.57,-37.69,0,*68
1506632550.3,1316,17.56,74690.3,-3.97,-37.69,-38.05,0,*6D
1506632551.53,1317,17.5,74690.3,-4.01,-37.87,-38.05,0,*64
1506632552.79,1318,17.56,74688.8,-4.01,-37.75,-38.11,0,*63
1506632554.02,1319,17.56,74686.8,-3.99,-37.81,-38.05,0,*6A
1506632555.29,1320,17.5,74688.0,-4.01,-37.87,-38.23,0,*64
1506632556.53,1321,17.56,74690.5,-3.99,-37.45,-37.63,0,*66
1506632557.77,1322,17.56,74688.0,-3.99,-37.63,-37.87,0,*6B
1506632559.05,1323,17.5,74688.3,-4.01,-37.69,-37.93,0,*63
1506632560.28,1324,17.56,74690.8,-4.01,-37.87,-38.05,0,*64
1506632561.56,1325,17.5,74684.5,-4.01,-37.63,-37.69,0,*6A
1506632562.79,1326,17.56,74690.3,-4.01,-37.45,-37.75,0,*60
1506632564.02,1327,17.56,74688.8,-4.01,-37.45,-37.75,0,*61
1506632565.28,1328,17.56,74690.0,-4.01,-37.69,-37.87,0,*6D
1506632566.56,1329,17.56,74690.8,-4.01,-37.63,-37.93,0,*63
1506632567.83,1330,17.56,74686.8,-3.99,-37.63,-37.81,0,*6E
1506632569.04,1331,17.56,74688.5,-3.99,-37.57,-37.87,0,*6E
1506632570.28,1332,17.5,74688.5,-3.99,-37.69,-37.87,0,*60
1506632571.54,1333,17.56,74690.3,-4.01,-37.51,-37.87,0,*6C
1506632572.8,1334,17.56,74690.8,-4.01,-37.51,-37.87,0,*6B
1506632574.08,1335,17.56,74690.0,-4.01,-37.63,-37.93,0,*6E
1506632575.34,1336,17.56,74690.0,-4.01,-37.63,-37.87,0,*68
1506632576.61,1337,17.5,74688.0,-4.01,-37.63,-37.87,0,*69
1506632577.89,1338,17.5,74686.5,-4.01,-37.69,-37.93,0,*69
1506632579.17,1339,17.5,74688.0,-4.01,-37.93,-38.23,0,*69
1506632580.46,1340,17.56,74690.0,-4.01,-37.93,-38.23,0,*67
1506632581.71,1341,17.5,74686.3,-4.03,-37.93,-38.11,0,*65
1506632582.97,1342,17.5,74684.8,-4.03,-37.69,-37.93,0,*66
1506632584.23,1343,17.56,74688.5,-4.01,-37.69,-37.87,0,*60
1506632585.47,1344,17.56,74688.5,-4.03,-37.69,-37.87,0,*65
1506632586.7,1345,17.5,74686.8,-4.03,-37.63,-37.87,0,*6E
1506632587.93,1346,17.56,74690.3,-4.03,-37.75,-37.93,0,*6F
1506632589.18,1347,17.56,74688.0,-4.03,-37.63,-37.93,0,*69
1506632590.42,1348,17.5,74688.3,-4.03,-37.51,-37.87,0,*62
1506632591.62,1349,17.5,74686.0,-4.03,-37.45,-37.87,0,*66
1506632592.85,1350,17.56,74690.8,-4.03,-37.33,-37.69,0,*6F
1506632594.08,1351,17.5,74686.0,-4.03,-37.33,-37.69,0,*6E
1506632595.31,1352,17.56,74688.8,-4.05,-37.39,-37.75,0,*6C
1506632596.54,1353,17.5,74684.5,-4.03,-37.75,-37.93,0,*6B
1506632597.77,1354,17.5,74684.3,-4.05,-37.93,-38.17,0,*61
1506632599.03,1355,17.56,74686.8,-4.05,-37.93,-38.11,0,*66
1506632600.27,1356,17.5,74684.5,-4.05,-37.93,-38.17,0,*63
1506632601.5,1357,17.5,74688.0,-4.03,-37.87,-38.11,0,*67
1506632602.76,1358,17.5,74684.8,-4.05,-37.93,-38.11,0,*6B
1506632603.99,1359,17.56,74688.3,-4.05,-37.57,-37.93,0,*67
1506632605.24,1360,17.56,74690.0,-4.03,-37.63,-37.93,0,*6C
1506632606.44,1361,17.5,74688.5,-4.03,-37.75,-38.05,0,*6A
1506632607.71,1362,17.5,74686.3,-4.05,-37.69,-37.99,0,*68
1506632608.96,1363,17.5,74686.5,-4.03,-37.69,-37.93,0,*65
1506632610.19,1364,17.5,74684.3,-4.05,-37.57,-37.93,0,*69
1506632611.43,1365,17.5,74686.0,-4.05,-37.39,-37.75,0,*68
1506632612.66,1366,17.56,74690.3,-4.05,-37.33,-37.69,0,*6C
1506632613.92,1367,17.56,74688.8,-4.05,-37.69,-37.93,0,*67
1506632615.18,1368,17.5,74684.5,-4.05,-37.69,-37.93,0,*68
1506632616.41,1369,17.5,74690.3,-4.09,-37.81,-38.17,0,*60
1506632617.65,1370,17.56,74688.3,-4.09,-37.87,-38.23,0,*69
1506632618.86,1371,17.5,74688.0,-4.09,-37.87,-38.05,0,*6C
1506632620.09,1372,17.56,74690.5,-4.09,-37.45,-37.81,0,*62
1506632621.34,1373,17.5,74688.0,-4.09,-37.39,-37.81,0,*68
1506632622.58,1374,17.56,74690.5,-4.05,-37.39,-37.75,0,*68
1506632623.82,1375,17.5,74684.8,-4.05,-37.51,-37.75,0,*67
1506632625.08,1376,17.5,74688.3,-4.05,-37.51,-37.81,0,*6F
1506632626.34,1377,17.56,74688.8,-4.05,-37.51,-37.81,0,*6E
1506632627.58,1378,17.5,74686.5,-4.05,-37.57,-37.81,0,*67
1506632628.84,1379,17.56,74688.8,-4.05,-37.51,-37.81,0,*60
1506632630.1,1380,17.5,74686.5,-4.05,-37.69,-37.93,0,*6E
1506632631.33,1381,17.5,74688.8,-4.05,-37.57,-37.93,0,*62
1506632632.6,1382,17.5,74688.0,-4.05,-37.93,-37.99,0,*63
1506632633.83,1383,17.56,74688.0,-4.05,-37.93,-38.17,0,*6B
1506632635.07,1384,17.5,74688.5,-4.05,-37.57,-37.99,0,*6D
1506632636.33,1385,17.56,74688.5,-4.05,-37.39,-37.69,0,*6B
1506632637.56,1386,17.5,74688.8,-4.05,-37.51,-37.75,0,*6B
1506632638.83,1387,17.5,74686.5,-4.05,-37.39,-37.81,0,*6F
1506632640.06,1388,17.5,74688.8,-4.09,-37.75,-37.99,0,*6D
1506632641.29,1389,17.56,74690.5,-4.09,-37.81,-38.05,0,*6D
1506632642.49,1390,17.5,74690.0,-4.09,-37.87,-38.05,0,*63
1506632643.75,1391,17.5,74688.5,-4.05,-37.93,-38.11,0,*6E
1506632645.01,1392,17.5,74690.3,-4.09,-37.99,-38.23,0,*6A
1506632646.24,1393,17.5,74688.3,-4.09,-37.75,-37.99,0,*67
1506632647.5,1394,17.5,74684.0,-4.11,-38.05,-38.23,0,*6F
1506632648.76,1395,17.5,74686.5,-4.11,-37.99,-38.17,0,*63
1506632649.96,1396,17.5,74688.0,-4.09,-37.87,-38.17,0,*66
1506632651.23,1397,17.5,74686.8,-4.11,-37.87,-38.23,0,*69
1506632652.49,1398,17.5,74688.3,-4.11,-37.87,-38.23,0,*66
1506632653.72,1399,17.5,74688.0,-4.11,-37.87,-38.05,0,*63
1506632654.96,1400,17.5,74690.0,-4.11,-37.87,-38.17,0,*67
1506632656.19,1401,17.5,74690.3,-4.11,-37.87,-38.05,0,*65
1506632657.41,1402,17.5,74686.0,-4.11,-37.75,-38.05,0,*6B
1506632658.65,1403,17.5,74690.0,-4.13,-37.81,-38.05,0,*63
1506632659.92,1404,17.56,74692.0,-4.13,-37.99,-38.23,0,*69
1506632661.21,1405,17.5,74688.3,-4.11,-37.81,-37.99,0,*6D
1506632662.44,1406,17.56,74688.5,-4.11,-37.87,-38.05,0,*62
1506632663.68,1407,17.5,74688.0,-4.13,-37.81,-38.17,0,*64
1506632664.88,1408,17.56,74690.8,-4.09,-37.87,-38.05,0,*65
1506632666.14,1409,17.5,74688.3,-4.11,-37.99,-38.17,0,*61
1506632667.41,1410,17.5,74688.0,-4.15,-37.87,-38.23,0,*65
1506632668.65,1411,17.5,74686.0,-4.13,-38.05,-38.23,0,*67
1506632669.88,1412,17.56,74688.5,-4.13,-38.05,-38.23,0,*64
1506632671.17,1413,17.5,74686.8,-4.15,-37.93,-38.23,0,*63
1506632672.41,1414,17.5,74688.8,-4.15,-37.57,-37.87,0,*6D
1506632673.69,1415,17.5,74684.8,-4.15,-37.63,-37.93,0,*6E
1506632674.96,1416,17.56,74690.3,-4.13,-37.81,-37.99,0,*6D
1506632676.17,1417,17.56,74688.8,-4.13,-38.05,-38.17,0,*66
1506632677.46,1418,17.5,74686.8,-4.15,-38.11,-38.29,0,*67
1506632678.69,1419,17.56,74690.3,-4.15,-37.87,-38.05,0,*68
1506632679.96,1420,17.5,74686.0,-4.15,-37.69,-37.87,0,*67
1506632681.21,1421,17.5,74686.3,-4.15,-37.45,-37.69,0,*68
1506632682.45,1422,17.5,74686.5,-4.13,-37.33,-37.63,0,*66
1506632683.66,1423,17.5,74690.0,-4.13,-37.27,-37.45,0,*66
1506632684.92,1424,17.5,74684.5,-4.13,-37.39,-37.63,0,*6A
1506632686.19,1425,17.5,74688.3,-4.15,-37.63,-37.87,0,*68
1506632687.48,1426,17.5,74686.5,-4.15,-37.81,-37.93,0,*62
1506632688.74,1427,17.5,74684.8,-4.13,-37.63,-37.99,0,*63
1506632690.03,1428,17.56,74690.3,-4.15,-37.93,-38.29,0,*61
1506632691.27,1429,17.5,74688.8,-4.13,-37.87,-38.23,0,*69
1506632692.56,1430,17.5,74688.8,-4.15,-37.93,-38.11,0,*63
1506632693.79,1431,17.5,74684.3,-4.15,-37.87,-38.05,0,*62
1506632695.03,1432,17.5,74688.8,-4.15,-37.45,-37.87,0,*6A
1506632696.29,1433,17.5,74690.8,-4.15,-37.45,-37.81,0,*6D
1506632697.57,1434,17.5,74688.3,-4.15,-37.63,-37.93,0,*6D
1506632698.82,1435,17.5,74686.5,-4.15,-37.45,-37.69,0,*6D
1506632700.08,1436,17.5,74686.5,-4.15,-37.33,-37.69,0,*6F
1506632701.37,1437,17.5,74688.3,-4.15,-37.81,-37.93,0,*62
1506632702.63,1438,17.5,74684.0,-4.15,-37.87,-38.11,0,*6E
1506632703.89,1439,17.5,74688.0,-4.15,-37.51,-37.87,0,*64
1506632705.15,1440,17.5,74690.3,-4.15,-37.33,-37.69,0,*6E
1506632706.41,1441,17.56,74688.5,-4.15,-37.51,-37.87,0,*6B
1506632707.67,1442,17.5,74688.0,-4.17,-37.51,-37.93,0,*6F
1506632708.91,1443,17.5,74686.8,-4.17,-37.51,-37.87,0,*6B
1506632710.17,1444,17.5,74686.8,-4.17,-37.63,-37.93,0,*68
1506632711.4,1445,17.5,74688.0,-4.13,-37.45,-37.81,0,*6A
1506632712.7,1446,17.5,74690.8,-4.15,-37.81,-37.93,0,*64
1506632713.98,1447,17.5,74686.5,-4.15,-37.81,-38.11,0,*60
1506632715.22,1448,17.5,74690.3,-4.13,-37.81,-38.05,0,*6C
1506632716.48,1449,17.5,74688.0,-4.15,-38.05,-38.23,0,*6C
1506632717.75,1450,17.5,74690.3,-4.15,-37.87,-38.11,0,*60
1506632719.03,1451,17.5,74688.8,-4.19,-37.93,-38.29,0,*63
1506632720.29,1452,17.5,74686.5,-4.17,-37.93,-38.11,0,*65
1506632721.55,1453,17.5,74684.3,-4.19,-37.75,-37.93,0,*67
1506632722.79,1454,17.5,74690.5,-4.17,-37.81,-38.05,0,*65
1506632724.02,1455,17.5,74686.8,-4.17,-37.93,-38.05,0,*67
1506632725.25,1456,17.5,74688.8,-4.17,-37.33,-37.69,0,*6B
1506632726.48,1457,17.5,74684.5,-4.17,-37.45,-37.81,0,*6D
1506632727.72,1458,17.5,74684.3,-4.17,-37.81,-38.05,0,*69
1506632728.98,1459,17.5,74686.5,-4.19,-37.57,-37.93,0,*6D
1506632730.24,1460,17.5,74684.8,-4.19,-37.75,-37.99,0,*6D
1506632731.5,1461,17.5,74688.3,-4.17,-37.69,-37.93,0,*65
1506632732.74,1462,17.5,74688.3,-4.17,-37.81,-38.05,0,*60
1506632733.98,1463,17.5,74690.3,-4.19,-37.87,-38.17,0,*6A
1506632735.26,1464,17.5,74690.8,-4.19,-37.93,-38.11,0,*6E
1506632736.52,1465,17.5,74688.3,-4.17,-37.93,-38.23,0,*60
1506632737.76,1466,17.5,74688.0,-4.17,-37.87,-38.11,0,*67
1506632739.02,1467,17.5,74690.0,-4.19,-37.75,-37.93,0,*60
1506632740.28,1468,17.5,74688.3,-4.19,-37.87,-37.99,0,*68
1506632741.54,1469,17.5,74690.8,-4.19,-37.93,-38.17,0,*65
1506632742.8,1470,17.5,74688.0,-4.19,-37.87,-38.11,0,*6E
1506632744.09,1471,17.5,74690.3,-4.19,-37.69,-37.93,0,*6A
1506632745.34,1472,17.5,74688.8,-4.19,-37.93,-38.17,0,*6F
1506632746.6,1473,17.5,74688.3,-4.19,-37.93,-38.17,0,*6E
1506632747.86,1474,17.5,74688.8,-4.19,-37.87,-38.11,0,*6A
1506632749.13,1475,17.5,74688.3,-4.21,-37.63,-37.99,0,*65
1506632750.39,1476,17.5,74686.3,-4.19,-37.51,-37.75,0,*6E
1506632751.65,1477,17.5,74690.8,-4.19,-37.39,-37.87,0,*6C
1506632752.89,1478,17.5,74686.8,-4.17,-37.45,-37.81,0,*60
1506632754.17,1479,17.5,74688.5,-4.19,-37.69,-37.93,0,*62
1506632755.43,1480,17.5,74688.3,-4.19,-37.99,-38.17,0,*68
1506632756.68,1481,17.5,74686.8,-4.19,-37.57,-37.93,0,*68
1506632757.95,1482,17.5,74686.0,-4.19,-37.39,-37.87,0,*66
1506632759.23,1483,17.5,74686.0,-4.19,-37.51,-37.93,0,*6C
1506632760.46,1484,17.5,74684.5,-4.21,-37.93,-38.17,0,*6D
1506632761.7,1485,17.5,74686.5,-4.21,-38.05,-38.23,0,*6B
1506632762.94,1486,17.5,74686.0,-4.23,-38.05,-38.43,0,*6C
1506632764.17,1487,17.5,74690.5,-4.23,-38.05,-38.35,0,*6C
1506632765.45,1488,17.5,74684.3,-4.23,-37.99,-38.23,0,*6E
1506632766.69,1489,17.5,74688.3,-4.21,-37.99,-38.17,0,*6A
1506632767.98,1490,17.5,74688.8,-4.23,-37.93,-38.23,0,*6D
1506632769.24,1491,17.5,74686.5,-4.23,-37.81,-38.17,0,*68
1506632770.53,1492,17.5,74686.8,-4.23,-37.99,-38.23,0,*65
1506632771.79,1493,17.5,74686.8,-4.23,-37.81,-38.17,0,*6A
1506632773.05,1494,17.5,74686.5,-4.23,-38.05,-38.23,0,*69
1506632774.33,1495,17.5,74688.8,-4.23,-37.99,-38.23,0,*62
1506632775.57,1496,17.5,74686.5,-4.23,-38.05,-38.35,0,*6C
1506632776.82,1497,17.5,74688.3,-4.23,-37.93,-38.17,0,*6D
1506632778.08,1498,17.5,74688.0,-4.23,-37.99,-38.35,0,*68
1506632779.34,1499,17.5,74686.5,-4.23,-37.81,-38.17,0,*60
1506632780.61,1500,17.5,74690.0,-4.23,-37.81,-38.17,0,*61
1506632781.86,1501,17.5,74688.8,-4.23,-37.45,-37.81,0,*68
1506632783.09,1502,17.5,74686.3,-4.23,-37.75,-38.05,0,*6B
1506632784.34,1503,17.5,74686.8,-4.23,-37.57,-37.93,0,*6A
1506632785.58,1504,17.5,74690.5,-4.25,-37.87,-38.11,0,*63
1506632786.84,1505,17.5,74686.0,-4.25,-37.81,-38.11,0,*64
1506632788.13,1506,17.5,74684.3,-4.27,-37.81,-38.11,0,*65
1506632789.36,1507,17.5,74686.5,-4.25,-37.63,-38.05,0,*6F
1506632790.62,1508,17.5,74688.0,-4.27,-37.63,-37.87,0,*67
1506632791.87,1509,17.5,74686.0,-4.23,-37.57,-37.93,0,*60
1506632793.11,1510,17.5,74686.8,-4.25,-37.81,-38.05,0,*65
1506632794.34,1511,17.5,74686.5,-4.25,-37.69,-38.05,0,*62
1506632795.63,1512,17.5,74688.5,-4.27,-37.69,-37.99,0,*69
1506632796.89,1513,17.5,74688.3,-4.25,-37.63,-37.99,0,*60
1506632798.12,1514,17.5,74684.5,-4.25,-37.51,-37.87,0,*69
1506632799.38,1515,17.5,74684.5,-4.27,-37.45,-37.81,0,*69
1506632800.64,1516,17.5,74684.5,-4.25,-37.69,-37.99,0,*6F
1506632801.9,1517,17.5,74690.0,-4.25,-37.51,-37.69,0,*6A
1506632803.15,1518,17.5,74686.8,-4.27,-37.63,-38.05,0,*63
1506632804.39,1519,17.5,74688.0,-4.25,-37.81,-38.05,0,*6C
1506632805.65,1520,17.5,74690.0,-4.23,-37.57,-37.99,0,*61
1506632806.9,1521,17.5,74684.5,-4.23,-37.63,-38.05,0,*6D
1506632808.16,1522,17.5,74684.8,-4.25,-37.63,-37.99,0,*62
1506632809.42,1523,17.5,74686.3,-4.25,-37.63,-37.99,0,*63
1506632810.68,1524,17.5,74688.5,-4.25,-37.69,-37.99,0,*6E
1506632811.92,1525,17.5,74686.8,-4.25,-37.45,-37.81,0,*68
1506632813.17,1526,17.5,74690.0,-4.27,-37.69,-38.05,0,*64
1506632814.4,1527,17.5,74688.0,-4.25,-37.69,-38.05,0,*67
1506632815.68,1528,17.5,74686.0,-4.27,-37.69,-38.11,0,*6F
1506632816.97,1529,17.5,74688.3,-4.27,-37.81,-38.11,0,*68
1506632818.21,1530,17.5,74688.3,-4.25,-37.87,-38.23,0,*65
1506632819.47,1531,17.5,74686.5,-4.23,-37.45,-37.81,0,*6B
1506632820.73,1532,17.5,74688.5,-4.27,-37.45,-37.81,0,*6C
1506632822.01,1533,17.5,74688.0,-4.27,-37.51,-37.81,0,*68
1506632823.28,1534,17.5,74690.0,-4.27,-37.81,-38.05,0,*61
1506632824.53,1535,17.5,74684.3,-4.27,-37.69,-38.05,0,*66
1506632825.77,1536,17.5,74686.0,-4.25,-37.51,-37.87,0,*69
1506632827.05,1537,17.5,74686.0,-4.27,-37.69,-37.99,0,*6E
1506632828.28,1538,17.5,74684.5,-4.25,-37.69,-38.05,0,*69
1506632829.55,1539,17.5,74684.8,-4.27,-37.81,-38.05,0,*6C
1506632830.81,1540,17.5,74686.0,-4.27,-37.51,-37.87,0,*6A
1506632832.04,1541,17.5,74686.3,-4.25,-37.33,-37.51,0,*66
1506632833.3,1542,17.5,74688.8,-4.27,-37.51,-37.87,0,*68
1506632834.59,1543,17.5,74684.5,-4.27,-37.51,-37.99,0,*66
1506632835.85,1544,17.5,74686.8,-4.25,-37.51,-37.99,0,*63
1506632837.12,1545,17.5,74686.8,-4.27,-37.69,-37.87,0,*64
1506632838.38,1546,17.5,74684.0,-4.27,-37.45,-37.81,0,*6F
1506632839.64,1547,17.5,74686.0,-4.27,-37.45,-37.81,0,*6E
1506632840.9,1548,17.5,74684.0,-4.27,-37.51,-37.87,0,*62
1506632842.15,1549,17.5,74690.8,-4.25,-37.51,-37.69,0,*61
1506632843.4,1550,17.5,74684.0,-4.27,-37.45,-37.69,0,*6E
1506632844.66,1551,17.5,74686.8,-4.27,-37.45,-37.69,0,*6F
1506632845.89,1552,17.5,74690.0,-4.25,-37.51,-37.87,0,*6B
1506632847.16,1553,17.5,74686.3,-4.27,-37.51,-37.87,0,*68
1506632848.44,1554,17.5,74684.3,-4.27,-37.69,-38.11,0,*64
1506632849.69,1555,17.5,74686.0,-4.27,-37.69,-38.05,0,*60
1506632850.98,1556,17.5,74686.0,-4.27,-37.51,-37.63,0,*67
1506632852.22,1557,17.5,74688.5,-4.29,-37.57,-37.93,0,*61
1506632853.47,1558,17.5,74686.5,-4.27,-37.33,-37.69,0,*67
1506632854.75,1559,17.5,74690.8,-4.27,-37.51,-37.81,0,*64
1506632856.02,1560,17.5,74690.3,-4.27,-37.63,-37.87,0,*69
1506632857.28,1561,17.5,74690.8,-4.27,-37.69,-37.87,0,*62
1506632858.57,1562,17.5,74684.0,-4.27,-37.69,-37.99,0,*6E
1506632859.85,1563,17.5,74684.0,-4.27,-37.51,-37.81,0,*6D
1506632861.14,1564,17.5,74688.5,-4.27,-37.63,-37.99,0,*62
1506632862.43,1565,17.5,74686.8,-4.27,-37.63,-37.99,0,*63
1506632863.69,1566,17.5,74684.5,-4.27,-37.33,-37.63,0,*60
1506632864.95,1567,17.5,74686.8,-4.27,-37.45,-37.63,0,*60
1506632866.23,1568,17.5,74684.3,-4.27,-37.51,-37.69,0,*60
1506632867.47,1569,17.5,74684.5,-4.27,-36.97,-37.27,0,*60
1506632868.73,1570,17.5,74686.0,-4.27,-37.45,-37.63,0,*66
1506632869.99,1571,17.5,74684.3,-4.25,-37.51,-37.81,0,*6C
1506632871.22,1572,17.5,74686.8,-4.25,-37.45,-37.69,0,*6C
1506632872.5,1573,17.5,74688.0,-4.27,-37.51,-37.69,0,*6A
1506632873.76,1574,17.5,74686.0,-4.27,-37.51,-37.87,0,*6D
1506632875.02,1575,17.5,74686.0,-4.27,-37.51,-37.87,0,*6C
1506632876.29,1576,17.5,74684.5,-4.27,-37.63,-37.87,0,*6E
1506632877.51,1577,17.5,74686.0,-4.25,-37.45,-37.69,0,*69
1506632878.77,1578,17.5,74684.3,-4.29,-37.51,-37.69,0,*6F
1506632880.0,1579,17.5,74690.3,-4.29,-37.57,-37.93,0,*6D
1506632881.23,1580,17.5,74688.0,-4.29,-37.69,-38.05,0,*66
1506632882.46,1581,17.5,74684.8,-4.33,-37.69,-38.05,0,*6C
1506632883.7,1582,17.5,74686.8,-4.29,-37.75,-38.11,0,*6C
1506632884.91,1583,17.5,74684.5,-4.29,-37.57,-37.87,0,*6D
1506632886.17,1584,17.5,74690.0,-4.25,-37.69,-37.99,0,*64
1506632887.43,1585,17.5,74690.0,-4.27,-37.27,-37.51,0,*69
1506632888.72,1586,17.5,74688.3,-4.27,-37.63,-37.99,0,*6E
1506632889.98,1587,17.5,74688.0,-4.27,-37.51,-37.87,0,*61
1506632891.19,1588,17.5,74688.5,-4.29,-37.75,-38.05,0,*63
1506632892.4,1589,17.5,74688.0,-4.29,-37.87,-38.05,0,*6F
1506632893.63,1590,17.5,74686.5,-4.33,-37.75,-38.11,0,*64
1506632894.89,1591,17.5,74688.5,-4.29,-37.69,-37.93,0,*66
1506632896.12,1592,17.5,74688.5,-4.33,-37.39,-37.57,0,*63
1506632897.34,1593,17.5,74686.5,-4.29,-37.57,-37.87,0,*6C
1506632898.57,1594,17.5,74690.0,-4.29,-37.57,-37.93,0,*6E
1506632899.8,1595,17.5,74686.0,-4.33,-37.69,-38.05,0,*69
1506632901.06,1596,17.5,74686.8,-4.33,-37.69,-37.93,0,*6A
1506632902.29,1597,17.5,74684.8,-4.33,-37.75,-38.11,0,*63
1506632903.49,1598,17.5,74684.0,-4.29,-37.75,-38.17,0,*61
1506632904.72,1599,17.5,74686.0,-4.33,-37.75,-37.93,0,*68
1506632905.93,1600,17.5,74686.8,-4.29,-37.57,-37.75,0,*68
1506632907.17,1601,17.5,74686.8,-4.29,-37.39,-37.75,0,*61
1506632908.44,1602,17.5,74686.3,-4.33,-37.21,-37.51,0,*66
1506632909.67,1603,17.5,74690.3,-4.29,-37.51,-37.75,0,*6D
1506632910.91,1604,17.5,74688.3,-4.33,-37.39,-37.57,0,*6F
1506632912.15,1605,17.5,74684.5,-4.29,-37.51,-37.75,0,*6B
1506632913.38,1606,17.5,74686.5,-4.29,-37.69,-38.05,0,*6B
1506632914.64,1607,17.5,74686.0,-4.29,-37.69,-37.93,0,*6A